SCP
0 0 0 0 0 0 0 0 0 0 0 0 0 0 0 0 0 0 0 0 0 0 0 0 0 0 0 0 0 0 0 0
0 0 0 0 0 0 0 0 0 0 0 0 0 0 0 0 0 0 0 0 0 0 0 0 0 0 0 0 0 0 0 0
0 0 0 0 0 0 0 0 0 0 0 0 0 0 0 0 0 0 0 0 0 0 0 0 0 0 0 0 0 0 0 0
0 0 0 0 0 0 0 0 0 0 0 0 0 0 0 0 0 0 0 0 0 0 0 0 0 0 0 0 0 0 0 0
0 0 0 0 0 0 0 0 0 0 0 0 0 0 0 0 0 0 0 0 0 0 0 0 0 0 0 0 0 0 0 0
0 0 0 0 0 0 0 0 0 0 0 0 0 0 0 0 0 0 0 0 0 0 0 0 0 0 0 0 0 0 0 0
0 0 0 0 0 0 0 0 0 0 0 0 0 0 0 0 0 0 0 0 0 0 0 0 0 0 0 0 0 0 0 0
0 0 0 0 0 0 0 0 0 0 0 0 0 0 0 0 0 0 0 0 0 0 0 0 0 0 0 0 0 0 0 0
0 0 0 0 0 0 0 0 0 0 0 0 0 0 0 0 0 0 0 0 0 0 0 0 0 0 0 0 0 0 0 0
-0 -0 0 -0 0 -0 0 0 0 0 0 0 0 0 0 0 0 0 0 0 0 0 0 0 0 0 0 0 0 0 0 0
-0 -0 0 0 -0 -0 0 0 0 0 0 0 0 0 0 0 0 0 0 -0 -0 -0 0 0 0 0 0 0 0 0 0 0
-0 0 0 0 -0 -0 0 0 0 0 0 0 0 0 0 0 0 -0 -0 -0 0 0 0 0 0 0 0 0 0 0 0 0
0 0 0 0 0 0 0 0 0 0 0 0 0 0 -0 -0 -0 -0 -0 0 0 0 0 0 0 0 0 0 0 0 0 0
-0 -0 0 0 0 0 0 0 0 0 0 0 0 0 0 -0 -0 0 0 0 0 0 0 0 0 0 0 0 0 0 0 0
0 0 0 0 0 0 -0 -0 0 -0 0 0 -0 -0 0 0 0 0 0 0 0 0 0 0 0 0 0 0 0 0 0 0
0 -0 -0 -0 0 -0 -0 -0 -0 -0 -0 0 0 -0 0 0 0 0 0 0 0 0 0 0 0 0 0 0 0 0 0 0
0 0 -0 0 0 -0 -0 -0 -0 -0 0 0 0 0 0 0 0 0 0 0 0 0 0 0 0 0 0 0 0 0 0 0
0 0 -0 -0 -0 0 0 0 0 0 0 0 0 0 0 0 0 0 0 0 0 0 0 0 0 0 0 0 0 0 0 0
0 0 0 0 0 0 0 0 0 0 0 0 0 0 0 0 0 0 0 0 0 0 0 0 0 0 0 0 0 0 0 0
0 0 0 0 0 0 0 0 0 0 0 0 0 0 0 0 0 0 0 0 0 0 0 0 0 0 0 0 0 0 0 0
Wind_Speed_500mb
63 60 62 46 41 44 52 62 73 81 94 91 98 106 97 98 100 97 92 79 74 65 57 52 45 42 39 46 51 42 35 26
62 57 54 52 44 46 64 59 68 80 87 89 103 88 85 89 94 92 85 77 71 65 56 53 55 50 53 49 45 33 36 32
60 54 48 42 40 47 58 61 73 79 84 90 81 79 77 79 79 75 76 72 65 63 64 62 57 55 52 46 39 33 32 30
51 41 36 30 26 30 52 70 74 74 79 81 75 66 62 68 70 66 71 72 74 71 67 67 64 57 45 37 36 32 28 25
40 31 24 15 20 37 58 71 76 77 77 78 70 67 63 61 71 77 78 82 74 71 68 63 60 49 44 39 33 26 23 18
34 19 7 6 27 49 59 71 76 76 75 70 68 65 64 74 83 86 84 81 75 69 67 58 48 45 42 36 30 24 18 14
30 18 20 17 28 45 57 67 71 74 75 77 74 78 90 97 97 92 85 75 77 70 61 55 47 41 36 29 25 21 14 8
40 32 35 39 35 43 58 69 76 85 91 91 103 110 110 105 99 88 84 77 67 64 57 51 45 39 32 26 20 15 10 6
43 43 42 52 62 71 73 75 85 96 104 111 114 111 103 95 88 85 75 67 62 57 52 46 40 33 26 21 16 10 7 3
41 48 50 56 63 77 88 96 105 113 115 109 105 102 97 93 82 73 68 62 56 49 43 36 35 28 21 17 11 4 3 6
44 51 58 62 70 84 94 103 108 106 104 100 95 95 89 81 74 69 59 56 49 45 37 30 28 25 18 11 5 2 6 10
49 56 62 69 76 90 95 95 93 90 87 87 83 78 74 70 62 57 52 48 44 39 35 30 23 18 11 5 2 7 9 10
53 59 62 64 66 76 82 79 80 81 77 71 67 63 59 55 53 47 43 39 38 35 32 25 19 11 6 4 6 5 7 10
52 60 65 64 64 74 72 64 64 63 62 60 58 54 47 43 43 39 36 33 33 29 23 19 14 9 6 1 2 4 10 16
39 47 51 50 52 57 58 53 53 56 54 51 48 44 39 35 33 31 29 27 23 21 19 16 12 9 5 1 6 11 14 17
35 41 44 42 44 44 45 42 44 46 46 44 40 37 35 31 27 24 23 13 9 13 11 8 8 7 3 2 7 11 14 21
31 35 37 35 38 36 34 31 33 39 39 36 29 22 23 26 29 26 20 16 16 14 11 7 5 1 4 9 12 16 24 30
27 28 30 32 33 33 30 25 24 26 30 27 18 16 18 21 21 21 24 20 16 12 10 8 8 7 8 13 18 24 30 34
23 29 28 27 27 26 24 23 20 19 19 13 10 14 15 14 13 12 10 11 10 10 11 11 9 8 13 16 23 30 36 41
21 23 26 26 27 25 26 23 20 17 15 13 12 14 15 14 14 11 8 9 11 10 11 11 9 13 18 24 30 34 37 42
Wind_Direction_500mb
311 306 302 285 261 222 223 213 217 221 222 223 223 221 219 218 210 203 201 198 199 193 189 178 176 175 169 156 151 139 122 137
307 303 298 290 267 231 211 213 213 214 216 219 213 212 211 212 205 201 193 187 187 182 171 167 161 159 156 139 121 137 153 151
308 306 303 294 267 235 207 208 210 213 213 213 208 211 205 206 199 191 183 174 166 161 159 152 153 143 131 122 143 156 155 156
319 307 302 290 273 228 199 200 204 209 212 207 208 206 205 190 184 169 159 152 151 151 151 146 139 124 130 144 152 158 159 161
328 319 305 271 185 189 187 196 199 199 201 199 195 194 188 175 160 155 151 145 145 147 143 133 122 137 146 153 157 158 156 152
351 348 340 178 161 166 177 176 186 191 184 178 177 175 160 150 146 145 146 147 149 138 127 128 144 149 151 153 155 158 160 161
29 56 80 118 145 153 159 164 172 172 168 162 154 148 144 144 144 145 146 143 135 132 138 143 148 149 150 153 153 161 162 161
50 71 96 109 129 143 146 148 151 149 143 144 143 142 142 144 146 144 137 134 142 140 143 148 153 153 148 151 154 154 153 190
66 80 99 113 122 128 133 137 137 137 141 142 140 140 142 141 138 133 136 146 143 143 148 151 147 144 142 143 153 167 200 304
81 92 104 111 120 126 128 131 134 134 135 139 140 138 138 133 132 138 145 145 144 143 143 151 140 140 142 155 171 187 310 309
90 98 104 115 125 123 124 127 127 133 135 138 137 133 130 130 143 144 146 143 142 144 141 140 143 148 161 156 126 278 287 299
90 99 109 118 121 120 124 125 129 131 131 127 126 128 135 140 141 144 146 146 145 141 145 152 153 148 131 117 166 265 293 313
92 101 107 111 114 115 114 119 122 123 123 127 129 133 136 138 141 146 145 143 146 153 153 155 152 134 131 172 223 279 309 310
95 104 109 110 112 114 115 122 123 124 126 130 132 131 137 142 139 143 150 156 153 153 156 150 148 164 201 241 329 335 352 344
104 110 112 116 118 116 121 125 128 129 131 131 131 136 140 144 145 148 149 156 157 156 162 165 172 195 192 179 31 352 341 345
114 115 117 122 121 122 126 132 134 133 134 136 139 142 142 141 140 143 143 142 153 170 180 182 200 191 162 351 334 339 348 351
120 122 123 127 123 125 130 139 143 143 143 143 144 151 159 162 161 163 173 168 175 198 203 229 230 277 298 335 346 344 350 348
143 136 137 137 136 139 140 147 153 153 152 154 152 156 160 173 182 180 182 193 204 214 227 237 253 272 324 344 344 346 342 338
148 151 153 154 154 149 149 152 162 166 163 165 158 160 164 177 184 188 191 203 214 237 237 238 253 303 326 335 339 337 333 330
155 158 162 167 172 173 171 168 171 180 190 198 193 185 187 197 204 217 246 257 259 245 247 253 278 302 325 332 331 327 324 325
Wind_Speed_850mb
63 60 62 46 41 44 52 62 73 81 94 91 98 106 97 98 100 97 92 79 74 65 57 52 45 42 39 46 51 42 35 26
62 57 54 52 44 46 64 59 68 80 87 89 103 88 85 89 94 92 85 77 71 65 56 53 55 50 53 49 45 33 36 32
60 54 48 42 40 47 58 61 73 79 84 90 81 79 77 79 79 75 76 72 65 63 64 62 57 55 52 46 39 33 32 30
51 41 36 30 26 30 52 70 74 74 79 81 75 66 62 68 70 66 71 72 74 71 67 67 64 57 45 37 36 32 28 25
40 31 24 15 20 37 58 71 76 77 77 78 70 67 63 61 71 77 78 82 74 71 68 63 60 49 44 39 33 26 23 18
34 19 7 6 27 49 59 71 76 76 75 70 68 65 64 74 83 86 84 81 75 69 67 58 48 45 42 36 30 24 18 14
30 18 20 17 28 45 57 67 71 74 75 77 74 78 90 97 97 92 85 75 77 70 61 55 47 41 36 29 25 21 14 8
40 32 35 39 35 43 58 69 76 85 91 91 103 110 110 105 99 88 84 77 67 64 57 51 45 39 32 26 20 15 10 6
43 43 42 52 62 71 73 75 85 96 104 111 114 111 103 95 88 85 75 67 62 57 52 46 40 33 26 21 16 10 7 3
41 48 50 56 63 77 88 96 105 113 115 109 105 102 97 93 82 73 68 62 56 49 43 36 35 28 21 17 11 4 3 6
44 51 58 62 70 84 94 103 108 106 104 100 95 95 89 81 74 69 59 56 49 45 37 30 28 25 18 11 5 2 6 10
49 56 62 69 76 90 95 95 93 90 87 87 83 78 74 70 62 57 52 48 44 39 35 30 23 18 11 5 2 7 9 10
53 59 62 64 66 76 82 79 80 81 77 71 67 63 59 55 53 47 43 39 38 35 32 25 19 11 6 4 6 5 7 10
52 60 65 64 64 74 72 64 64 63 62 60 58 54 47 43 43 39 36 33 33 29 23 19 14 9 6 1 2 4 10 16
39 47 51 50 52 57 58 53 53 56 54 51 48 44 39 35 33 31 29 27 23 21 19 16 12 9 5 1 6 11 14 17
35 41 44 42 44 44 45 42 44 46 46 44 40 37 35 31 27 24 23 13 9 13 11 8 8 7 3 2 7 11 14 21
31 35 37 35 38 36 34 31 33 39 39 36 29 22 23 26 29 26 20 16 16 14 11 7 5 1 4 9 12 16 24 30
27 28 30 32 33 33 30 25 24 26 30 27 18 16 18 21 21 21 24 20 16 12 10 8 8 7 8 13 18 24 30 34
23 29 28 27 27 26 24 23 20 19 19 13 10 14 15 14 13 12 10 11 10 10 11 11 9 8 13 16 23 30 36 41
21 23 26 26 27 25 26 23 20 17 15 13 12 14 15 14 14 11 8 9 11 10 11 11 9 13 18 24 30 34 37 42
Wind_Direction_850mb
311 306 302 285 261 222 223 213 217 221 222 223 223 221 219 218 210 203 201 198 199 193 189 178 176 175 169 156 151 139 122 137
307 303 298 290 267 231 211 213 213 214 216 219 213 212 211 212 205 201 193 187 187 182 171 167 161 159 156 139 121 137 153 151
308 306 303 294 267 235 207 208 210 213 213 213 208 211 205 206 199 191 183 174 166 161 159 152 153 143 131 122 143 156 155 156
319 307 302 290 273 228 199 200 204 209 212 207 208 206 205 190 184 169 159 152 151 151 151 146 139 124 130 144 152 158 159 161
328 319 305 271 185 189 187 196 199 199 201 199 195 194 188 175 160 155 151 145 145 147 143 133 122 137 146 153 157 158 156 152
351 348 340 178 161 166 177 176 186 191 184 178 177 175 160 150 146 145 146 147 149 138 127 128 144 149 151 153 155 158 160 161
29 56 80 118 145 153 159 164 172 172 168 162 154 148 144 144 144 145 146 143 135 132 138 143 148 149 150 153 153 161 162 161
50 71 96 109 129 143 146 148 151 149 143 144 143 142 142 144 146 144 137 134 142 140 143 148 153 153 148 151 154 154 153 190
66 80 99 113 122 128 133 137 137 137 141 142 140 140 142 141 138 133 136 146 143 143 148 151 147 144 142 143 153 167 200 304
81 92 104 111 120 126 128 131 134 134 135 139 140 138 138 133 132 138 145 145 144 143 143 151 140 140 142 155 171 187 310 309
90 98 104 115 125 123 124 127 127 133 135 138 137 133 130 130 143 144 146 143 142 144 141 140 143 148 161 156 126 278 287 299
90 99 109 118 121 120 124 125 129 131 131 127 126 128 135 140 141 144 146 146 145 141 145 152 153 148 131 117 166 265 293 313
92 101 107 111 114 115 114 119 122 123 123 127 129 133 136 138 141 146 145 143 146 153 153 155 152 134 131 172 223 279 309 310
95 104 109 110 112 114 115 122 123 124 126 130 132 131 137 142 139 143 150 156 153 153 156 150 148 164 201 241 329 335 352 344
104 110 112 116 118 116 121 125 128 129 131 131 131 136 140 144 145 148 149 156 157 156 162 165 172 195 192 179 31 352 341 345
114 115 117 122 121 122 126 132 134 133 134 136 139 142 142 141 140 143 143 142 153 170 180 182 200 191 162 351 334 339 348 351
120 122 123 127 123 125 130 139 143 143 143 143 144 151 159 162 161 163 173 168 175 198 203 229 230 277 298 335 346 344 350 348
143 136 137 137 136 139 140 147 153 153 152 154 152 156 160 173 182 180 182 193 204 214 227 237 253 272 324 344 344 346 342 338
148 151 153 154 154 149 149 152 162 166 163 165 158 160 164 177 184 188 191 203 214 237 237 238 253 303 326 335 339 337 333 330
155 158 162 167 172 173 171 168 171 180 190 198 193 185 187 197 204 217 246 257 259 245 247 253 278 302 325 332 331 327 324 325